Location: Newark
(29.9790°N, 31.1340°E)
Time: 06:10:35
(UTC+00:00)

A-11 Canister half - Pass Details

Date: 26 January 2020
Orbit: 1524 x 1684 km, 47.3° (Epoch: 27 February)

Event Time Altitude Azimuth Distance (km) Brightness Sun altitude
Rises 15:54:04 0° 260° (W) 4,667 13.9 -6.4°
Reaches altitude 10° 15:57:22 10° 268° (W) 3,691 12.5 -7.0°
Maximum altitude 16:05:57 40° 336° (NNW) 2,140 9.9 -8.8°
Drops below altitude 10° 16:14:46 10° 43° (NE) 3,777 10.5 -10.7°
Enters shadow 16:15:42 - 46° (NE) 4,043 10.7 -10.8°
